Location: Igri�s
(42.2144°N, 0.4320°W)
Time: 10:19:24
(UTC+00:00)

USA 276 - Pass Details

Date: 13 August 2020
Orbit: 386 x 395 km, 50.0° (Epoch: 07 September)

Event Time Altitude Azimuth Distance (km) Brightness Sun altitude
Rises 20:40:32 0° 300° (WNW) 2,271 7.7 -16.3°
Reaches altitude 10° 20:42:53 10° 316° (NW) 1,415 6.2 -16.6°
Maximum altitude 20:45:28 23° 11° (N) 891 4.2 -17.0°
Enters shadow 20:47:06 16° 53° (NE) 1,127 4.3 -17.3°
